Location: Haliburton Scout Reserve
(45.0900°N, 78.3200°W)
Time: 04:00:48
(UTC-04:00)

UWE-3 - Visible Passes

Search period start: 23 September 2023 00:00
Search period end: 03 October 2023 00:00
Orbit: 575 x 666 km, 97.7° (Epoch: 22 September)

Date Brightness Start Highest point End Pass type
(mag) Time Alt. Az. Time Alt. Az. Time Alt. Az.
23 Sep ? 03:50:06 10° NNE 03:52:26 30° NNE 03:52:26 30° NNE visible
23 Sep ? 05:27:37 10° NNW 05:29:36 15° NW 05:29:36 15° NW visible
24 Sep ? 04:07:28 10° NNE 04:09:55 33° N 04:09:55 33° N visible
24 Sep ? 05:46:28 10° NW 05:47:05 10° NW 05:47:05 10° NW visible
25 Sep ? 02:50:06 10° NE 02:50:15 10° NE 02:50:15 10° NE visible
25 Sep ? 04:24:55 10° N 04:27:24 32° N 04:27:24 32° N visible
26 Sep ? 03:06:46 10° NE 03:07:43 14° NE 03:07:43 14° NE visible
26 Sep ? 04:42:28 10° N 04:44:53 27° NNW 04:44:53 27° NNW visible
27 Sep ? 03:23:45 10° NNE 03:25:10 19° NE 03:25:10 19° NE visible
27 Sep ? 05:00:08 10° N 05:02:20 22° NW 05:02:20 22° NW visible
28 Sep ? 03:40:53 10° NNE 03:42:37 22° NNE 03:42:37 22° NNE visible
28 Sep ? 05:17:57 10° NNW 05:19:47 17° NW 05:19:47 17° NW visible
29 Sep ? 03:58:08 10° NNE 04:00:03 25° NNE 04:00:03 25° NNE visible
29 Sep ? 05:36:05 10° NNW 05:37:13 12° NW 05:37:13 12° NW visible
30 Sep ? 04:15:28 10° N 04:17:28 26° N 04:17:28 26° N visible
01 Oct ? 02:57:37 10° NE 02:57:42 10° NE 02:57:42 10° NE visible
01 Oct ? 04:32:54 10° N 04:34:52 24° N 04:34:52 24° N visible
02 Oct ? 03:14:23 10° NE 03:15:06 14° NE 03:15:06 14° NE visible
02 Oct ? 04:50:25 10° N 04:52:15 21° NNW 04:52:15 21° NNW visible
